[keps] orb09211.2l.amsat
Ray Hoad
r.hoad at att.net
Thu Jul 30 20:55:27 PDT 2009
SB KEPS @ AMSAT $ORB09211.N
2Line Orbital Elements 09211.AMSAT
HR AMSAT ORBITAL ELEMENTS FOR AMATEUR SATELLITES IN NASA FORMAT
FROM WA5QGD FORT WORTH,TX July 30, 2009
Send Subscribe/unsubscribe to KEPS at
http://www.amsat.org/mailman/listinfo/keps
BID: ORB09211.N
DECODE 2-LINE ELSETS WITH THE FOLLOWING KEY:
1 AAAAAU 00 0 0 BBBBB.BBBBBBBB .CCCCCCCC 00000-0 00000-0 0 DDDZ
2 AAAAA EEE.EEEE FFF.FFFF GGGGGGG HHH.HHHH III.IIII JJ.JJJJJJJJKKKKKZ
KEY: A-CATALOGNUM B-EPOCHTIME C-DECAY D-ELSETNUM E-INCLINATION F-RAAN
G-ECCENTRICITY H-ARGPERIGEE I-MNANOM J-MNMOTION K-ORBITNUM Z-CHECKSUM
TO ALL RADIO AMATEURS BT
AO-07
1 07530U 74089B 09211.58324359 -.00000027 00000-0 10000-3 0 5423
2 07530 101.4245 234.6643 0011693 182.8638 177.2370 12.53576150588157
FO-29
1 24278U 96046B 09211.70794076 -.00000087 00000-0 -50622-4 0 987
2 24278 098.5473 079.8837 0350049 237.5178 119.1676 13.52943750639634
SO-33
1 25509U 98061B 09210.27301247 .00000114 00000-0 11016-4 0 05099
2 25509 031.4327 174.5116 0354230 346.3839 012.7441 14.28258201561858
RS-22
1 27939U 03042A 09211.20854144 -.00000034 00000-0 23394-5 0 8522
2 27939 097.9375 084.4988 0013703 001.7386 358.3869 14.63331467311861
VO-52
1 28650U 05017B 09211.33992324 .00000391 00000-0 56038-4 0 2848
2 28650 097.7393 271.4899 0025997 247.5699 112.2812 14.81607170229033
AO-16
1 20439U 90005D 09210.90140021 -.00000005 00000-0 13437-4 0 06659
2 20439 098.2820 177.3665 0011784 047.3222 312.8962 14.31829342019261
LO-19
1 20442U 90005G 09211.65008089 .00000089 00000-0 48502-4 0 5799
2 20442 098.2457 185.1758 0012572 042.1439 318.0714 14.32064964 19535
AO-27
1 22825U 93061C 09211.40932022 -.00000020 00000-0 86249-5 0 3028
2 22825 098.4381 163.4772 0009051 132.6184 227.5758 14.29269788826080
IO-26
1 22826U 93061D 09211.67188635 .00000002 00000-0 17291-4 0 319
2 22826 098.4325 164.4613 0009688 128.1299 232.0759 14.29522342826223
GO-32
1 25397U 98043D 09211.17037394 .00000025 00000-0 29116-4 0 9537
2 25397 098.3265 231.2076 0002255 115.8723 244.2693 14.23161622574243
NO-44
1 26931U 01043C 09211.66109587 -.00000162 00000-0 -30972-4 0 2285
2 26931 067.0536 312.3429 0006192 277.5999 082.4408 14.29561377408799
SO-50
1 27607U 02058C 09211.34510878 -.00000147 00000-0 -84652-6 0 9463
2 27607 064.5581 254.0130 0062778 195.2647 164.6541 14.71449468355022
CO-55
1 27844U 03031E 09211.02504854 .00000031 00000-0 34832-4 0 6325
2 27844 098.7125 219.5843 0010705 024.2201 335.9470 14.20648648315345
CO-57
1 27848U 03031J 09211.00857095 .00000006 00000-0 23162-4 0 5814
2 27848 098.7149 218.6305 0010492 028.4049 331.7701 14.20449436315308
AO-51
1 28375U 04025K 09210.95639064 -.00000006 00000-0 11062-4 0 04503
2 28375 098.0518 218.0655 0084924 355.9726 004.0770 14.40647949267112
CO-56
1 28941U 06005C 09211.52668876 .00052688 37068-5 14389-3 0 3019
2 28941 098.1384 034.3091 0069368 327.1941 032.5020 15.90128562194126
GENESAT1
1 29655U 06058C 09210.58838663 .00008199 00000-0 79277-4 0 7693
2 29655 040.0233 277.4778 0001319 072.6060 287.4900 15.66421958149122
CP3
1 31129U 07012N 09211.65109621 .00000005 00000-0 11771-4 0 963
2 31129 097.9855 262.6429 0103241 149.9247 210.7915 14.52150541121196
CO-65
1 32785U 08021C 09211.89117734 .00000276 00000-0 41948-4 0 4326
2 32785 097.9426 275.4919 0013924 248.2442 111.7281 14.81504700 67910
KKS-1
1 33493U 09002B 09211.82143132 .00000237 00000-0 37841-4 0 6143
2 33493 098.0593 324.2286 0021537 100.0689 260.2965 14.80706561 27925
SOHLA-1
1 33496U 09002E 09211.76262439 .00000047 00000-0 16153-4 0 5782
2 33496 098.0407 320.3978 0007291 135.6001 224.5795 14.69441804 27679
NOAA-10
1 16969U 86073A 09210.63641460 -.00000090 00000-0 -18820-4 0 07067
2 16969 098.6899 237.0504 0013244 073.8561 286.4060 14.27390708189563
NOAA-11
1 19531U 88089A 09210.70768086 .00000025 00000-0 35385-4 0 07236
2 19531 098.7830 300.0050 0011528 351.8718 008.2263 14.14900210075537
NOAA-12
1 21263U 91032A 09210.99120427 .00000023 00000-0 28593-4 0 02286
2 21263 098.7722 219.0703 0013204 026.3127 333.8722 14.25587055946496
MET-3/5
1 21655U 91056A 09210.91987555 .00000051 00000-0 10000-3 0 06392
2 21655 082.5579 176.3102 0015159 075.0821 285.1978 13.17021138863252
MET-2/21
1 22782U 93055A 09211.85682951 .00000114 00000-0 89472-4 0 5244
2 22782 082.5497 147.3739 0021097 221.7657 138.1894 13.83638647803645
OKEAN-4
1 23317U 94066A 09211.69549868 .00000165 00000-0 17395-4 0 9765
2 23317 082.5419 293.8878 0020853 217.8195 142.1558 14.82711327798818
NOAA-14
1 23455U 94089A 09210.77576440 .00000043 00000-0 46079-4 0 07075
2 23455 098.9058 288.3033 0010374 073.2942 286.9367 14.13766918751942
NOAA-15
1 25338U 98030A 09210.68047171 -.00000050 00000-0 -27299-5 0 00236
2 25338 098.5856 198.9605 0009623 297.4933 062.5239 14.24775315582820
RESURS
1 25394U 98043A 09210.94590978 .00000008 00000-0 21428-4 0 02734
2 25394 098.3373 241.1129 0002435 078.8568 281.2885 14.24186969574486
FENGYUN1
1 25730U 99025A 09211.91725586 .00000475 00000-0 30397-3 0 8156
2 25730 098.7561 180.7691 0023273 090.3784 270.0056 14.07932693526473
OKEAN-0
1 25860U 99039A 09211.83327908 .00000009 00000-0 86278-5 0 7447
2 25860 097.7891 191.2853 0001849 060.1428 299.9963 14.73581859539573
NOAA-16
1 26536U 00055A 09210.65128444 -.00000021 00000-0 13958-4 0 05011
2 26536 099.1763 215.3465 0011014 157.5075 202.6582 14.12526559456293
NOAA-17
1 27453U 02032A 09210.78950821 -.00000138 00000-0 -41822-4 0 05058
2 27453 098.4799 268.3861 0011530 005.3853 354.7443 14.24078851368813
NOAA-18
1 28654U 05018A 09210.79832901 -.00000061 00000-0 -92053-5 0 09926
2 28654 098.9070 153.7112 0013308 241.6206 118.3628 14.11273923215961
NOAA-19
1 33591U 09005A 09210.78756280 -.00000127 00000-0 -46878-4 0 01957
2 33591 098.7461 155.4439 0015063 119.9672 240.3017 14.10972960024449
HUBBLE
1 20580U 90037B 09208.21241285 .00000264 00000-0 74649-5 0 04260
2 20580 028.4684 201.0699 0003246 349.8200 010.2333 15.00818011855877
ISS
1 25544U 98067A 09210.84190236 .00006591 00000-0 49196-4 0 03139
2 25544 051.6414 087.8478 0006397 294.2475 120.8267 15.74188738612673
CO-58
1 28895U 05043F 09211.24684483 -.00000041 00000-0 94034-6 0 3576
2 28895 098.0523 100.6464 0017131 210.6435 149.3730 14.59783963200011
FALCON
1 30776U 07006E 09210.33937611 .00000213 00000-0 18487-4 0 06378
2 30776 035.4329 203.6614 0001758 297.5885 062.4653 15.03276290131442
MAST
1 31126U 07012K 09211.12858621 .00000062 00000-0 24426-4 0 6503
2 31126 097.9847 263.9623 0095184 146.0672 214.6685 14.53509515121276
CAPE1
1 31130U 07012P 09210.79635372 -.00000198 00000-0 -35139-4 0 6590
2 31130 097.9845 261.7341 0103204 152.8152 207.8502 14.52075163120876
COMPASS
1 32787U 08021E 09211.32402263 -.00000054 00000-0 -83124-7 0 4231
2 32787 097.9399 274.7787 0014744 251.1673 108.7941 14.81632532 67831
AAUSAT2
1 32788U 08021F 09211.82853778 .00000346 00000-0 50598-4 0 4203
2 32788 097.9374 275.3440 0014197 251.6711 108.2955 14.81758240 67912
DO-64
1 32789U 08021G 09210.76997063 .00000346 00000-0 50647-4 0 04353
2 32789 097.9450 274.4849 0014562 252.5645 107.3971 14.81755303067750
CO-66
1 32791U 08021J 09210.22364797 .00000222 00000-0 35117-4 0 04201
2 32791 097.9393 273.7204 0015016 253.6195 106.3368 14.81459365067638
RS-30
1 32953U 08025A 09210.60785378 .00000010 00000-0 00000 0 0 3661
2 32953 082.4980 230.2319 0020709 086.3903 273.9546 12.43002621 53669
TACSAT-3
1 35001U 09028A 09211.82008078 .00001607 00000-0 46355-4 0 615
2 35001 040.4560 339.7044 0022996 126.2486 234.0457 15.38983299 11078
PHARMSAT
1 35002U 09028B 09210.74636239 .00001694 00000-0 47309-4 0 595
2 35002 040.4700 345.7026 0026019 122.7324 237.6002 15.39742912 10906
HAWKSAT1
1 35003U 09028C 09210.79950243 .00001470 00000-0 41540-4 0 611
2 35003 040.4706 345.2361 0026605 125.0399 235.2916 15.39977316 10927
CP6
1 35004U 09028D 09210.72519673 .00003425 00000-0 87810-4 0 558
2 35004 040.4624 345.4901 0026246 126.1461 234.1785 15.40311012 10909
AEROCUB3
1 35005U 09028E 09211.51164573 .00003461 00000-0 89171-4 0 565
2 35005 040.4756 340.9725 0025865 129.2521 231.0580 15.40150016 11025
/EX
More information about the Keps
mailing list